{"data":{"norad_id":49732,"intl_designator":"2021-115J","name":"STARLINK-3246","alt_names":[],"object_type":"PAYLOAD","status":"ACTIVE","operator":null,"country":"US","launch_date":"2021-12-02","launch_site_code":"AFETR","launch_vehicle":null,"mission":null,"orbit_class":"UNKNOWN","rcs_meters":null,"size_class":null,"mass_kg":null,"dimensions":null,"purposes":["comms"],"wikipedia_slug":null,"has_3d_model":false,"image_url":null,"decayed_at":null,"tle_current":{"epoch":"2026-05-24T18:43:45.792768Z","epoch_age_seconds":87413,"freshness":"FRESH","line1":"1 49732U 21115J   26144.78039112 -.00000229  00000+0  36866-5 0  9990","line2":"2 49732  53.2121 177.6916 0001307  87.7070 272.4071 15.08835531246877","mean_motion":15.08835531,"eccentricity":0.0001307,"inclination_deg":53.2121,"raan_deg":177.6916,"arg_perigee_deg":87.707,"mean_anomaly_deg":272.4071,"bstar":3.6866e-6,"rev_number":24687,"period_min":95.437837352996,"perigee_km":538.85288019077,"apogee_km":540.66121769516,"semimajor_km":6917.894048943,"source":"CELESTRAK","updated_at":"2026-05-25T13:38:16.832462Z"}}}